Weather in Gubkinskiy

Russia / Yamalo-Nenets Autonomous Okrug     64°25′57″N   76°30′01″E
temp.,
°C
wind,
m/s
gust,
m/s
humid.,
%
clouds,
%
prec.,
mm/h
press.,
hPa
HPBL,
m
19 january, tue
tue1923:00−28w459888 0.1 100046
02:00−28w239887 0.0 100123
05:00−31nnw349982 0.1 100320
08:00−34n449917 0.0 100524
11:00−34nnw349729 0.0 100924
14:00−32nw459691 0.0 101252
17:00−30nw459793 0.0 101570
20:00−26nw5797100 0.1 1016206
20 january, wed
wed2023:00−25wnw5897100 0.2 1018218
02:00−27wnw589699 0.1 1019149
05:00−30wnw579690 0.1 102182
08:00−32wnw459785 0.0 102227
11:00−33w339675 0.0 102419
14:00−28sw239792 0.1 1024139
17:00−28s339696 0.1 102436
20:00−29sse359399 0.0 1024107
21 january, thu
thu2123:00−31sse449196 0.0 102436
02:00−31se4492100 0.0 102352
05:00−30se579499 0.0 1022138
08:00−29ese6894100 0.0 1020227
11:00−29ese71094100 0.0 1020261
14:00−28e71194100 0.0 1018255
17:00−29e81294100 0.0 1017268
20:00−29e81194100 0.0 1016298
22 january, fri
fri2223:00−29e81296100 0.1 1015323
02:00−30ene81196100 0.1 1015321
05:00−32ene81196100 0.2 1015296
08:00−37ne71196100 0.0 1016192
11:00−38ne7109690 0.1 1017174
14:00−39ne6109539 0.0 1019158
17:00−41nne699527 0.0 1020115
20:00−43nne589524 0.0 102282
23 january, sat
sat2323:00−44nne569532 0.0 102367
02:00−44nne559546 0.0 102451
05:00−44nne559548 0.0 102545
08:00−44nne459445 0.0 102737
11:00−43n459340 0.0 102860
14:00−43n459228 0.0 102943
17:00−43n459225 0.0 103035
20:00−44n459324 0.0 103233